{"data":{"norad_id":49455,"epoch":"2026-05-24T23:16:38.458848Z","epoch_age_seconds":87839,"freshness":"FRESH","line1":"1 49455U 21104AZ  26144.96988957  .00000432  00000+0  45233-4 0  9992","line2":"2 49455  53.2156 236.6855 0000971  80.9391 279.1711 15.08836069250295","mean_motion":15.08836069,"eccentricity":9.71e-5,"inclination_deg":53.2156,"raan_deg":236.6855,"arg_perigee_deg":80.9391,"mean_anomaly_deg":279.1711,"bstar":4.5233e-5,"rev_number":25029,"period_min":95.437803323086,"perigee_km":539.08367713209,"apogee_km":540.42713183704,"semimajor_km":6917.8924044846,"source":"CELESTRAK","updated_at":"2026-05-25T13:38:16.828435Z"}}